STARLINK-4027 (52601 NORAD) Tracking and Keplerian Element Data
This shows tracking and keplerian element data for the satellite.
Feedback or suggestion? Click here.
Element | Value |
Catalog | 52601 |
Name | STARLINK-4027 |
Epoch Orbit | 941 |
Epoch Day | 192.91667824 |
Epoch Year | 2022 |
RAAN | 160.2072 |
Inclination | 53.2176 |
Eccentricity | 0.0001662 |
Argument of Perigee | 52.5529 |
Mean Anonmoly | 126.6748 |
Mean Motion | 15.14821777 |
Decay Rate | -0.00721986 |
L1 | 1 52601U 22052D 22192.91667824 -.00721986 00000+0 -41240-1 0 9990 |
L2 | 2 52601 53.2176 160.2072 0001662 52.5529 126.6748 15.14821777 9412 |
Live tracking and technical data element details for STARLINK-4027 (NORAD 52601). STARLINK-4027 can be tracked NOW for your location showing map with azimuth and elevation plus other details from your city location.
Track the satellite on the map from your city or location and see movement details for azimuth, elevation, latitude, longitude, range, height, and movement on the map or in text.
IsCatalogInMostPopularTable: catalog: 52601, numindb: 6
Update: records affected: 1
GetName: 52601 STARLINK-4027
Hit Count: updated at: Sun, 14 Aug 2022 00:43:13 GMT